Tracking 28790 objects as of 19-Apr-2024
HD Live streaming from Space Station
objects crossing your sky now

DMSP 5D-2 F13 DEB

Track DMSP 5D-2 F13 DEB now!
10-day predictions


NORAD ID: 42278
Int'l Code: 1995-015GU
Perigee: 783.5 km
Apogee: 845.9 km
Inclination: 98.9 °
Period: 101.0 minutes
Semi major axis: 7185 km
RCS: Unknown
Launch date: March 24, 1995
Source: United States (US)
Launch site: AIR FORCE WESTERN TEST RANGE (AFWTR)

Note: This is SATELLITE DEBRIS
Your satellite tracking list
Your tracking list is empty




NASA's NSSDC Master Catalog

Two Line Element Set (TLE):
1 42278U 95015GU  24108.42280654  .00031749  00000-0  13318-1 0  9990
2 42278  98.8913  98.0094 0043400  78.6663 281.9388 14.25283511453722
Source of the keplerian elements: AFSPC